Weather observations for the past three days for
Chicopee Falls / Westover Air Force Base
Imperial (Metric)
Date Time (edt) Wind (mph) Vis. (mi.) Weather Sky Cond. Temperature (ºF) Relative Humidity Wind Chill (°F) Heat Index (°F) Pressure Precipitation (in)
Air Dwpt 6 hour altimeter (in) sea level (mb) 1 hr 3 hr 6 hr
Max. Min.
25 03:55 Calm 10.00 Fair CLR 58.8 55.6 89% 29.77 1008.6
25 02:55 N 3 10.00 Fair CLR 57.7 54 87% 29.75 1007.9
25 01:55 Calm 10.00 Fair CLR 64.2 55.4 70.7 64.2 73% 29.74 1007.6
25 00:55 N 5 10.00 Fair CLR 65.8 55 68% 29.72 1006.9
24 23:55 NW 10 10.00 Overcast OVC090 68.2 54.1 61% 29.7 1006.2
24 22:55 N 8 G 16 10.00 Mostly Cloudy FEW060 BKN080 68.9 52 55% 29.69 1005.8
24 21:55 N 6 10.00 Partly Cloudy FEW030 SCT060 67.8 53.4 60% 29.67 1005.2
24 20:55 N 13 G 24 10.00 Mostly Cloudy FEW024 SCT030 BKN035 69.8 57 64% 29.65 1004.5
24 19:55 NW 15 G 21 10.00 Mostly Cloudy BKN033 BKN060 70.5 58.1 77.7 69.1 65% 29.62 1003.5
24 18:55 N 10 10.00 Mostly Cloudy FEW035 SCT045 SCT060 BKN070 73.6 60.6 64% 29.59 1002.4
24 17:55 NW 14 10.00 Mostly Cloudy SCT070 BKN090 75.4 60.1 59% 78 29.55 1001.1
24 16:55 W 13 10.00 Mostly Cloudy SCT055 BKN070 BKN090 73.6 58.3 59% 29.53 1000.4
24 15:55 NW 9 10.00 Overcast SCT040 BKN050 OVC070 69.3 60.3 73% 29.54 1000.8
24 14:55 W 9 10.00 Mostly Cloudy FEW050 BKN065 BKN080 76.1 56.7 51% 78 29.53 1000.4
24 13:55 NW 9 10.00 Mostly Cloudy SCT050 BKN070 76.3 56.3 80.1 73.6 50% 78 29.53 1000.4
24 12:55 W 15 10.00 Mostly Cloudy FEW045 BKN055 BKN070 77.5 54.5 45% 79 29.53 1000.4
24 11:55 NW 18 G 25 10.00 Mostly Cloudy FEW050 BKN060 78.6 54.1 43% 79 29.53 1000.4
24 10:55 NW 15 10.00 Mostly Cloudy SCT043 BKN050 76.6 54.9 47% 78 29.53 1000.4
24 09:55 NW 17 10.00 A Few Clouds FEW050 76.8 54.5 46% 78 29.52 1000.0
24 08:55 W 13 10.00 A Few Clouds FEW037 FEW050 76.3 56.8 51% 78 29.53 1000.4
24 07:55 NW 15 10.00 Partly Cloudy FEW030 SCT043 SCT250 73.9 56.7 74.1 72.1 55% 29.53 1000.4
24 06:55 NW 6 10.00 Fair CLR 72.1 61.7 70% 29.51 999.7
24 05:55 W 7 10.00 A Few Clouds FEW042 72.1 65.7 80% 29.5 999.3
24 04:55 NW 10 10.00 Mostly Cloudy FEW011 FEW030 SCT037 BKN075 72.9 69.6 90% 29.49 999.0
24 03:55 SW 13 10.00 Partly Cloudy SCT095 73.2 69.4 88% 29.47 998.3
24 02:55 SW 12 10.00 Mostly Cloudy BKN100 BKN170 73.4 69.3 87% 29.47 998.3
24 01:55 SW 12 10.00 Mostly Cloudy BKN100 73.8 68.9 77.5 72.5 85% 29.48 998.7 0.01
24 00:55 S 16 10.00 Partly Cloudy SCT110 73 68.5 86% 29.48 998.7
23 23:55 S 13 10.00 Fair CLR 72.9 67.6 84% 29.5 999.4
23 22:55 S 14 G 20 10.00 A Few Clouds FEW060 FEW110 FEW130 74.7 70.2 86% 29.5 999.4 0.01
23 21:55 SW 9 10.00 Mostly Cloudy SCT055 BKN120 75.6 71.8 88% 75 29.51 999.7
23 20:55 S 10 10.00 Mostly Cloudy FEW080 BKN095 BKN110 76.1 71.6 86% 77 29.51 999.7 0.01
23 19:55 S 10 7.00 Light Rain FEW005 SCT050 SCT110 BKN130 76.6 70.7 91.8 76.6 82% 78 29.5 999.4 0.03 0.03
23 18:55 SW 13 10.00 Mostly Cloudy FEW030 SCT080 BKN180 82.8 70.7 67% 87 29.52 1000.1
23 17:55 S 14 G 23 7.00 Thunderstorm in Vicinity SCT030 SCT080 BKN160 84.9 73.9 70% 92 29.5 999.4
23 16:55 S 18 G 25 10.00 Mostly Cloudy FEW030 SCT150 BKN200 87.4 74.7 66% 97 29.52 1000.0
23 15:55 S 15 10.00 Mostly Cloudy FEW030 BKN150 BKN200 86.9 75 68% 96 29.54 1000.7
23 14:55 S 14 G 23 10.00 Mostly Cloudy FEW030 BKN150 BKN210 88.5 76.1 67% 100 29.56 1001.4
23 13:55 S 17 10.00 Mostly Cloudy SCT015 BKN120 BKN150 83.7 73.9 84 66.6 73% 91 29.61 1003.1
23 12:55 SW 10 10.00 Mostly Cloudy SCT015 BKN120 BKN150 80.6 74.1 81% 86 29.65 1004.5
23 11:55 S 7 10.00 Overcast OVC007 75.4 72.1 90% 75 29.69 1005.9
23 10:55 SW 8 2.50 Fog/Mist OVC002 72.7 71.4 96% 29.71 1006.5
23 09:55 SW 5 1.63 Fog/Mist OVC002 70.2 68.9 96% 29.74 1007.6
23 08:55 Calm 2.75 Fog/Mist OVC003 68.2 66.9 96% 29.77 1008.6
23 07:55 Calm 2.75 Fog/Mist OVC006 66.9 65.5 66.9 64.9 95% 29.79 1009.3
23 06:55 SE 3 10.00 Light Rain OVC008 66.6 64.8 94% 29.8 1009.6
23 05:55 NE 3 10.00 Overcast OVC004 65.8 64 94% 29.83 1010.6
23 04:55 SE 6 10.00 Overcast OVC007 65.7 63.5 93% 29.84 1011.0
23 03:55 Calm 10.00 Overcast OVC007 66 64.2 94% 29.85 1011.3
23 02:55 NE 6 10.00 Overcast OVC005 65.3 63.5 94% 29.87 1011.9
23 01:55 SE 7 10.00 Light Rain SCT005 BKN080 BKN130 OVC170 64.8 63 69.1 64.6 94% 29.9 1013.0 0.08 0.08
23 00:55 Calm 8.00 Light Rain OVC005 65.5 63.7 94% 29.96 1015.0
22 23:55 E 6 10.00 Overcast OVC005 65.8 63.5 92% 29.96 1015.0
22 22:55 NE 7 10.00 Overcast OVC006 66.9 64.2 91% 29.96 1015.0
22 21:55 NE 3 10.00 Overcast OVC007 67.8 65.3 92% 29.96 1015.0
22 20:55 NE 3 10.00 Overcast OVC008 68.5 65.5 90% 29.96 1015.0
22 19:55 NE 5 10.00 Overcast BKN008 OVC015 69.3 66.2 83.8 68.9 90% 29.97 1015.4 0.82
22 18:55 E 3 10.00 Overcast SCT007 OVC015 70.3 66.9 89% 29.96 1015.0
22 17:55 E 5 10.00 Overcast OVC016 72.3 68.5 88% 29.96 1015.0
22 16:55 E 5 10.00 Mostly Cloudy FEW009 BKN019 BKN026 73.6 69.8 88% 29.94 1014.3 0.89
22 15:55 SE 7 5.00 Thunderstorm Light Rain FEW004 SCT008 BKN019 71.6 68.7 91% 29.95 1014.7 0.89
22 14:55 NE 3 4.00 Light Rain Thunderstorm in Vicinity FEW004 BKN024 OVC070 81.3 74.8 81% 87 29.93 1014.0 0.03
22 13:55 S 6 10.00 Mostly Cloudy SCT018 BKN022 BKN120 82.8 72.3 83.1 71.4 71% 88 29.94 1014.3
22 12:55 SE 6 10.00 Mostly Cloudy SCT012 BKN018 81.1 72.3 75% 86 29.96 1015.0
22 11:55 SE 5 10.00 Overcast SCT012 BKN016 OVC100 79.5 71.6 77% 83 29.98 1015.7
22 10:55 E 6 10.00 Mostly Cloudy BKN012 BKN017 77.2 70.9 81% 79 29.99 1016.0
22 09:55 S 3 6.00 Fog/Mist BKN010 BKN013 75.9 70.7 84% 77 30.01 1016.7
22 08:55 S 5 3.00 Fog/Mist BKN006 OVC011 73.8 70.5 90% 30.02 1017.0
22 07:55 Calm 3.00 Fog/Mist OVC005 71.6 69.4 71.8 68.2 93% 30.03 1017.4
22 06:55 Calm 10.00 Overcast OVC005 70.2 68.4 94% 30.03 1017.4
22 05:55 Calm 10.00 Overcast OVC006 69.4 67.6 94% 30.03 1017.4
22 04:55 Calm 10.00 Overcast OVC005 68.9 67.1 94% 30.03 1017.4
Date Time (edt) Wind (mph) Vis. (mi.) Weather Sky Cond. Air Dwpt Max. Min. Relative Humidity Wind Chill (°F) Heat Index (°F) altimeter (in) sea level (mb) 1 hr 3 hr 6 hr
6 hour
Temperature (ºF) Pressure Precipitation (in)